STARLINK-3902, 52487

Orbit data source: Space-Track

STARLINK-3902, 52487 is a payload satellite owned by SpaceX/Seattle (US) in LEO that was launched on Fri, 06 May 2022 UTC via an FALCON 9 launch vehicle from the Air Force Eastern Test Range (AFETR). Payload-class satellites include a variety of spacecraft equipped with specific instruments for various scientific and technological missions. These include communications satellites like Starlink; space stations such as the ISS; scientific satellites like the Hubble; Earth observation satellites from companies like Planet Labs, Umbra, and HawkEye 360; GPS; miniature CubeSats for education and research; and military/defense satellites.

Loading next visibility...
Identifier
52487, 2022-049AN
Orbit
LEO
Country
Flag of USUS
Related business
Manufacturer
SpaceX/Seattle
Mission
Operational Commercial Communications
Bus & Motor
STARLINK, Unknown motor
Mass
297 kg wet, ~220 kg dry
Launch date (UTC)
2022-05-06 (4 years ago)
Launch vehicle
FALCON 9
Launch site
Air Force Eastern Test Range (AFETR)
Object type
Payload
Rocket body
Debris
Shape & HBR
Box + 1 Pan, 10.1 m
Radar Cross Section
13.562 m², Large (>1 m²)

Expand to show TLE details & history
Last TLE update: 1 day ago

TLE from 1 day ago
0 STARLINK-3902
1 52487U 22049AN  26236.10629324  .00000975  00000-0  38851-4 0  9999
2 52487  53.1629  11.5209 0001096  79.4675 280.6451 15.35403220238987
Epoch: 2026-08-24T02:33Z
TLE epoch observation values (Epoch: 2026-08-24T02:33:03.735Z)
Latitude
-0.00009°
Longitude
0.86252°
Altitude
460.487 km
Speed
7.638 km/s
True Right ascension
00h 46m 05s
True Declination
0° 00' 00"
Sunlit
Object was in full shadow at epoch
Visualization orbit readout
Latitude
Unknown
Longitude
Unknown
Altitude
Unknown
Speed
Unknown
Apparent Right ascension
Unknown
Apparent Declination
Unknown
Sunlit
N/A
Visualization observer readout
Local Sidereal Time
19:03:58
Azimuth
Unknown
Elevation
Unknown
Doppler factor
Unknown
Orbital elements
Apogee altitude
460.729 km
Perigee altitude
459.23 km
Semi-major axis
6,838.117 km
Eccentricity
0.00011
Inclination
53.1629°
RAAN
11.5209°
Arg. of periapsis
79.4675°
True anomaly
280.63276°
Mean anomaly
280.6451°
Eccentric anomaly
280.63893°
Mean motion
3.8383 °/min
Orbital period
93.79 mins
BSTAR
0.000038851
Loading maneuver chart data...
Computing Atmospheric mass density...
Loading historical data...
Loading historical data...
Loading historical data...
Loading historical data...
Loading historical data...
Loading historical data...
Loading historical data...

Documentation

Showing up to 5 results
|